Regional Weather Roundup
Issued by NWS

Home | Current Version | Previous Version | Graphics & Text | Print | Product List | Glossary On
Versions: 1 2 3 4 5 6 7 8 9 10 11 12 13 14 15 16 17 18 19 20 21 22 23 24 25 26 27 28 29 30 31 32 33 34 35 36 37 38 39 40 41 42 43 44 45 46 47 48 49 50
000
ASUS43 KLOT 212206
RWRIL

ILLINOIS REGIONAL WEATHER ROUNDUP
NATIONAL WEATHER SERVICE CHICAGO/ROMEOVILLE IL
400 PM CST SUN DEC 21 2014

NOTE: "FAIR" INDICATES FEW OR NO CLOUDS BELOW 12,000 FEET WITH NO
SIGNIFICANT WEATHER AND/OR OBSTRUCTIONS TO VISIBILITY.

* THESE STATIONS ARE NOT UNDER NWS QUALITY CONTROL. THEY ALSO MAY NOT
  REPORT WEATHER SUCH AS PRECIPITATION OR FOG.

ILZ001-002-007-009-015-016-024-212300-
NORTHWEST ILLINOIS

CITY           SKY/WX    TMP DP  RH WIND       PRES   REMARKS
MOLINE         CLOUDY    39  32  76 SE13      29.96F WCI  31
STERLING*      CLOUDY    37  30  75 SE8       30.02S WCI  31
SAVANNA*       CLOUDY    38  32  78 S13       29.98F WCI  30
$$

ILZ003-004-008-010-011-017-018-212300-
NORTH CENTRAL ILLINOIS

CITY           SKY/WX    TMP DP  RH WIND       PRES   REMARKS
ROCKFORD       CLOUDY    37  31  78 S15       30.04F WCI  28
FREEPORT*      CLOUDY    36  32  85 S15G21    30.01S WCI  26
ROCHELLE*      CLOUDY    36  32  86 S12       30.04S WCI  27
DE KALB*       CLOUDY    35  31  85 S13       30.05S WCI  26
PERU*          CLOUDY    38  32  78 S17       30.05S WCI  28
$$

ILZ005-006-012>014-019>023-212300-
NORTHEAST ILLINOIS

CITY           SKY/WX    TMP DP  RH WIND       PRES   REMARKS
CHICAGO-OHARE  CLOUDY    36  29  75 S10       30.08S WCI  28
CHICAGO-MIDWAY CLOUDY    38  29  70 S13       30.09F WCI  30
AURORA         CLOUDY    37  29  72 S10       30.07S HAZE    WCI  30
LANSING*       MOCLDY    35  29  79 S7        30.11S WCI  29
JOLIET*        CLOUDY    37  30  78 S7        30.09S WCI  31
WAUKEGAN       CLOUDY    36  28  73 S12       30.07S WCI  28
DUPAGE AIRPORT CLOUDY    37  30  75 S12       30.06S WCI  29
KANKAKEE*      PTCLDY    37  31  80 SE6       30.11S WCI  32
WHEELING       CLOUDY    36  28  73 S12       30.10R WCI  28
MORRIS*        CLOUDY    37  32  82 S12       30.07S WCI  30
ROMEOVILLE*    CLOUDY    36  30  79 S12       30.08S WCI  28
NORTHERLY ISL    N/A     36  28  73 SE12        N/A  WCI  28
$$

LMZ740>746-212300-
SOUTHERN LAKE MICHIGAN

STATION/POSITION SKY/WX   TEMP    WIND        PRES    VSBY  WAVE
                          AIR SEA DIR/SP/G                  HT/PER
                          (F)     (DEG/KT/KT) (MB)    (MI)  (FT/S)
WAUKEGAN HARBOR            36     170/ 15/ 18   N/A
HARRISON CRIB              35     160/ 16/ 19   N/A
BURNHAM HARBOR             36     170/  9/ 14   N/A
CALUMET HARBOR             36     140/  9/ 12 1018.1S
$$

ILZ025>027-034>036-040-047-049-050-058-095>099-212300-
WEST-CENTRAL ILLINOIS

CITY           SKY/WX    TMP DP  RH WIND       PRES   REMARKS
QUINCY         CLOUDY    42  34  73 S13       29.96S
GALESBURG*     CLOUDY    38  33  83 SE10G16   29.98F WCI  31
MACOMB*        CLOUDY    40  35  82 SE14G21   30.00S
JACKSONVILLE*  MOCLDY    41  34  75 SE10      30.02S
PITTSFIELD*    MOCLDY    42  36  78 SE13      29.99F
$$

ILZ028>032-037-038-041>044-048-051>054-059>061-212300-
CENTRAL ILLINOIS

CITY           SKY/WX    TMP DP  RH WIND       PRES   REMARKS
PONTIAC        CLOUDY    37  32  81 S9        30.09R WCI  31
BLOOMINGTON    CLOUDY    35  32  89 S12       30.07S WCI  27
DECATUR        MOCLDY    39  30  70 S12       30.08S WCI  32
PEORIA         CLOUDY    39  30  70 S10       30.04S WCI  32
LACON*         CLOUDY    37  30  78 S9        30.05S WCI  30
LINCOLN*       CLOUDY    38  33  83 S9        30.08R WCI  31
SPRINGFIELD    CLOUDY    40  32  73 SE14      30.05F
TAYLORVILLE    CLOUDY    37  32  81 SE8       30.06F WCI  31
$$

ILZ033-039-045-046-055>057-062-063-212300-
EAST-CENTRAL ILLINOIS

CITY           SKY/WX    TMP DP  RH WIND       PRES   REMARKS
CHAMPAIGN      MOCLDY    38  30  73 SE13      30.08F WCI  30
DANVILLE*      MOCLDY    37  30  77 SE8       30.08S WCI  31
RANTOUL*       MOCLDY    39  32  76 SE7       30.09F WCI  34
MATTOON        PTCLDY    39  27  62 SE9       30.08F WCI  33
PARIS*         PTCLDY    38  32  80 SE5       30.11F WCI  34
$$

ILZ079-100>102-212300-
SOUTHWEST ILLINOIS

CITY           SKY/WX    TMP DP  RH WIND       PRES   REMARKS
BELLEVILLE     CLOUDY    42  31  63 SE8       30.05F
CAHOKIA*       CLOUDY    43  32  65 SE9       30.04F
SPARTA*        CLOUDY    42  32  65 SE9       30.06F
$$

ILZ064>066-069>071-074>076-080>082-084>086-088>090-092>094-212300-
SOUTH-CENTRAL ILLINOIS

CITY           SKY/WX    TMP DP  RH WIND       PRES   REMARKS
CARBONDALE     MOCLDY    43  31  62 SE5       30.08S
CAIRO*         CLEAR     50  35  56 E3        30.07S
EFFINGHAM*     CLEAR     40  27  61 SE7       30.11S
MARION         PTCLDY    46  32  57 E9        30.08S
MT. VERNON     CLEAR     43  28  56 SE7       30.09S
CENTRALIA*     CLEAR     42  29  60 SE8       30.07F
SALEM*         CLEAR     44  31  59 E7        30.08F
METROPOLIS*    CLEAR     48  33  55 SE3       30.07S
$$

ILZ067-068-072-073-078-083-087-091-212300-
SOUTHEAST ILLINOIS

CITY           SKY/WX    TMP DP  RH WIND       PRES   REMARKS
LAWRENCEVILLE  MOCLDY    40  31  70 E7        30.12F
FLORA*         MOCLDY    40  31  70 E8        30.10S
FAIRFIELD*     CLEAR     43  29  59 E8        30.08F
HARRISBURG*    CLEAR     44  33  64 E6        30.09S
ROBINSON*      PTCLDY    39  31  74 SE9       30.13F WCI  32
CARMI*         CLEAR     44  33  65 E5        30.09S
$$

ABBREVIATIONS USED IN REMARKS
   TC - TEMPERATURE IN CELSIUS
  WCI - WIND CHILL INDEX
   HX - HEAT INDEX
  VSB - VISIBILITY
$$




USA.gov is the U.S. government's official web portal to all federal, state and local government web resources and services.